WILDBLUE-1

Last updated on Mon Sep 07 2026 00:02:57 GMT+0000 (Coordinated Universal Time)

1 29643U 06054A 26249.60603506 .00000054 00000+0 00000+0 0 9995 2 29643 3.0071 79.4081 0004778 93.9695 102.5769 0.99172035 54604
UTC large
Height (km)
Speed (km/s)
/
Latitude / Longitude
Inclination (degrees)
Orbital Period (minutes)
Azimuth
Elevation
Range (km)
Doppler Factor

Next 0 passes for location: London (51.5072 / 0.1276)

No passes found over London.
WILDBLUE-1